Home > Weather > Namsos > Past weeks

Flag for Norway Weather for the Past 2 Weeks in Namsos, Norway

Now
48 °F

Passing clouds.


Feels Like: 44 °F
Forecast: 42 / 53 °F
Wind: 10 mph from East

Location: Namsos Lufthavn

Current Time: Apr 30, 2016 at 12:02:04 AM

Latest Report: Apr 29, 2016 at 9:50 PM


Visibility: N/A

Pressure: 30.07 "Hg

Humidity: 50%

Dew Point: 30 °F

Location of NamsosLocation

Historic Weather in Namsos — Graph

°F

Namsos Temperature Yesterday

Maximum temperature yesterday: 50 °F (at 1:50 PM)
Minimum temperature yesterday: 45 °F (at 5:50 AM)
Average temperature yesterday: 48 °F

High & Low Weather Summary for the Past Weeks

 TemperatureHumidityPressure
High50 °F (Apr 29, 1:50 PM)100% (Apr 16, 6:20 AM)30.15 "Hg (Apr 16, 6:20 AM)
Low27 °F (Apr 27, 5:50 AM)34% (Apr 25, 2:50 PM)29.33 "Hg (Apr 18, 3:50 PM)
Average41 °F71%29.76 "Hg
* Reported Apr 14 9:20 PM — Apr 29 9:50 PM, Namsos, Weather by CustomWeather, © 2016

Note: Actual official high and low records may vary slightly from our data, if they occured in-between our weather recording intervals... More about our weather records

Advertising

Namsos Weather History for the Previous 24 Hours

Scroll right to see more
 ConditionsComfort  
Time TempWeatherWind HumidityBarometerVisibility
9:50 PM
Fri, Apr 29
48 °FPassing clouds.10 mph50%30.07 "HgN/A
9:20 PM48 °FPassing clouds.12 mph50%30.04 "HgN/A
8:50 PM48 °FPassing clouds.10 mph50%30.04 "HgN/A
8:20 PM48 °FPassing clouds.21 mph54%30.01 "HgN/A
6:50 PM50 °FPassing clouds.22 mph50%29.95 "HgN/A
6:20 PM50 °FPassing clouds.21 mph50%29.95 "HgN/A
5:50 PM50 °FPassing clouds.21 mph50%29.92 "HgN/A
4:50 PM48 °FPassing clouds.24 mph54%29.92 "HgN/A
4:20 PM48 °FPassing clouds.24 mph54%29.89 "HgN/A
3:20 PM48 °FPassing clouds.24 mph54%29.86 "HgN/A
2:20 PM50 °FPartly sunny.23 mph50%29.83 "HgN/A
1:50 PM50 °FScattered clouds.29 mph50%29.80 "HgN/A
1:20 PM48 °FScattered clouds.31 mph50%29.80 "HgN/A
12:50 PM48 °FScattered clouds.31 mph50%29.80 "HgN/A
12:20 PM46 °FScattered clouds.33 mph53%29.83 "HgN/A
11:50 AM48 °FScattered clouds.29 mph50%29.83 "HgN/A
11:20 AM46 °FScattered clouds.30 mph53%29.83 "HgN/A
10:50 AM46 °FScattered clouds.31 mph53%29.80 "HgN/A
9:50 AM48 °FScattered clouds.30 mph58%29.77 "HgN/A
9:20 AM48 °FScattered clouds.28 mph62%29.74 "HgN/A
8:50 AM48 °FScattered clouds.21 mph71%29.71 "HgN/A
8:20 AM48 °FScattered clouds.21 mph76%29.71 "HgN/A
7:50 AM48 °FScattered clouds.25 mph76%29.68 "HgN/A
7:20 AM46 °FBroken clouds.21 mph82%29.68 "HgN/A
6:50 AM45 °FBroken clouds.16 mph87%29.71 "HgN/A
6:20 AM45 °FLight rain. Broken clouds.17 mph81%29.71 "HgN/A
5:50 AM45 °FLight rain. Broken clouds.15 mph81%29.74 "HgN/A
Weather by CustomWeather, © 2016

See weather overviewHow to use our weather pages